Time,TemperatureF,DewpointF,PressureIn,WindDirection,WindDirectionDegrees,WindSpeedMPH,WindSpeedGustMPH,Humidity,HourlyPrecipIn,Conditions,Clouds,dailyrainin,SoftwareType,DateUTC
2013-08-02 00:01:00,60.9,55.0,30.11,East,96,1.0,1.0,81,0.00,,,0.00,Wunderground v.1.15,2013-08-02 07:01:00,
2013-08-02 00:10:00,60.7,54.8,30.11,NW,316,1.0,1.0,81,0.00,,,0.00,Wunderground v.1.15,2013-08-02 07:10:00,
2013-08-02 00:21:00,60.7,54.8,30.12,SE,124,1.0,1.0,81,0.00,,,0.00,Wunderground v.1.15,2013-08-02 07:21:00,
2013-08-02 00:26:00,60.5,54.6,30.12,SSE,168,1.0,2.0,81,0.00,,,0.00,Wunderground v.1.15,2013-08-02 07:26:00,
2013-08-02 00:36:00,60.5,55.0,30.12,North,0,1.0,1.0,82,0.00,,,0.00,Wunderground v.1.15,2013-08-02 07:36:00,
2013-08-02 00:45:00,60.5,54.6,30.12,ESE,117,1.0,1.0,81,0.00,,,0.00,Wunderground v.1.15,2013-08-02 07:45:00,
2013-08-02 00:51:00,60.5,55.0,30.12,North,1,1.0,1.0,82,0.00,,,0.00,Wunderground v.1.15,2013-08-02 07:51:00,
2013-08-02 01:01:00,60.4,54.9,30.12,South,169,1.0,4.0,82,0.00,,,0.00,Wunderground v.1.15,2013-08-02 08:01:00,
2013-08-02 01:06:00,60.4,54.9,30.12,SSE,151,1.0,4.0,82,0.00,,,0.00,Wunderground v.1.15,2013-08-02 08:06:00,
2013-08-02 01:15:00,60.4,54.9,30.12,West,275,1.0,1.0,82,0.00,,,0.00,Wunderground v.1.15,2013-08-02 08:15:00,
2013-08-02 01:25:00,60.4,54.9,30.12,East,92,2.0,2.0,82,0.00,,,0.00,Wunderground v.1.15,2013-08-02 08:25:00,
2013-08-02 01:36:00,60.4,54.9,30.12,NNW,339,1.0,2.0,82,0.00,,,0.00,Wunderground v.1.15,2013-08-02 08:36:00,
2013-08-02 01:45:00,60.2,54.7,30.12,SE,145,1.0,2.0,82,0.00,,,0.00,Wunderground v.1.15,2013-08-02 08:45:00,
2013-08-02 01:51:00,60.2,54.7,30.12,SE,143,2.0,2.0,82,0.00,,,0.00,Wunderground v.1.15,2013-08-02 08:51:00,
2013-08-02 02:01:00,60.2,54.7,30.12,South,179,1.0,1.0,82,0.00,,,0.00,Wunderground v.1.15,2013-08-02 09:01:00,
2013-08-02 02:11:00,60.2,54.7,30.12,SE,136,2.0,2.0,82,0.00,,,0.00,Wunderground v.1.15,2013-08-02 09:11:00,
2013-08-02 02:20:00,60.2,54.7,30.11,SE,143,2.0,6.0,82,0.00,,,0.00,Wunderground v.1.15,2013-08-02 09:20:00,
2013-08-02 02:26:00,60.2,54.7,30.11,North,10,2.0,6.0,82,0.00,,,0.00,Wunderground v.1.15,2013-08-02 09:26:00,
2013-08-02 02:36:00,60.2,54.7,30.11,ESE,113,1.0,2.0,82,0.00,,,0.00,Wunderground v.1.15,2013-08-02 09:36:00,
2013-08-02 02:41:00,60.1,54.6,30.11,NNE,20,1.0,1.0,82,0.00,,,0.00,Wunderground v.1.15,2013-08-02 09:41:00,
2013-08-02 02:50:00,60.1,54.6,30.11,SSE,151,1.0,6.0,82,0.00,,,0.00,Wunderground v.1.15,2013-08-02 09:50:00,
2013-08-02 03:01:00,60.1,54.6,30.11,SSE,150,1.0,1.0,82,0.00,,,0.00,Wunderground v.1.15,2013-08-02 10:01:00,
2013-08-02 03:10:00,60.1,54.6,30.11,South,182,1.0,1.0,82,0.00,,,0.00,Wunderground v.1.15,2013-08-02 10:10:00,
2013-08-02 03:21:00,59.9,54.4,30.11,SSE,157,1.0,2.0,82,0.00,,,0.00,Wunderground v.1.15,2013-08-02 10:21:00,
2013-08-02 03:30:00,59.9,54.1,30.11,SE,138,1.0,1.0,81,0.00,,,0.00,Wunderground v.1.15,2013-08-02 10:30:00,
2013-08-02 03:36:00,59.9,54.1,30.11,SE,138,1.0,1.0,81,0.00,,,0.00,Wunderground v.1.15,2013-08-02 10:36:00,
2013-08-02 03:45:00,59.9,54.4,30.11,SSE,160,1.0,1.0,82,0.00,,,0.00,Wunderground v.1.15,2013-08-02 10:45:00,
2013-08-02 03:51:00,59.9,54.4,30.11,SSE,158,0.0,0.0,82,0.00,,,0.00,Wunderground v.1.15,2013-08-02 10:51:00,
2013-08-02 04:00:00,60.1,54.6,30.11,SE,144,0.0,0.0,82,0.00,,,0.00,Wunderground v.1.15,2013-08-02 11:00:00,
2013-08-02 04:11:00,60.1,54.6,30.11,SSE,150,0.0,1.0,82,0.00,,,0.00,Wunderground v.1.15,2013-08-02 11:11:00,
2013-08-02 04:21:00,60.1,54.6,30.11,SSE,151,0.0,0.0,82,0.00,,,0.00,Wunderground v.1.15,2013-08-02 11:21:00,
2013-08-02 04:31:00,59.9,54.4,30.11,SSE,151,0.0,0.0,82,0.00,,,0.00,Wunderground v.1.15,2013-08-02 11:31:00,
2013-08-02 04:40:00,59.9,54.4,30.11,SE,140,1.0,4.0,82,0.00,,,0.00,Wunderground v.1.15,2013-08-02 11:40:00,
2013-08-02 04:45:00,59.9,54.1,30.11,SSE,164,1.0,4.0,81,0.00,,,0.00,Wunderground v.1.15,2013-08-02 11:45:00,
2013-08-02 04:51:00,59.8,54.3,30.11,SE,136,2.0,2.0,82,0.00,,,0.00,Wunderground v.1.15,2013-08-02 11:51:00,
2013-08-02 05:01:00,59.8,54.3,30.11,SSE,154,2.0,2.0,82,0.00,,,0.00,Wunderground v.1.15,2013-08-02 12:01:00,
2013-08-02 05:06:00,59.8,54.3,30.11,SE,131,1.0,2.0,82,0.00,,,0.00,Wunderground v.1.15,2013-08-02 12:06:00,
2013-08-02 05:15:00,59.6,54.1,30.11,NNE,21,1.0,1.0,82,0.00,,,0.00,Wunderground v.1.15,2013-08-02 12:15:00,
2013-08-02 05:21:00,59.6,54.4,30.11,North,359,0.0,1.0,83,0.00,,,0.00,Wunderground v.1.15,2013-08-02 12:21:00,
2013-08-02 05:30:00,59.6,54.1,30.11,SSE,147,0.0,0.0,82,0.00,,,0.00,Wunderground v.1.15,2013-08-02 12:30:00,
2013-08-02 05:40:00,59.6,54.4,30.12,SSE,157,0.0,1.0,83,0.00,,,0.00,Wunderground v.1.15,2013-08-02 12:40:00,
2013-08-02 05:50:00,59.5,54.3,30.12,SSE,158,0.0,0.0,83,0.00,,,0.00,Wunderground v.1.15,2013-08-02 12:50:00,
2013-08-02 05:56:00,59.5,54.3,30.12,SE,144,1.0,1.0,83,0.00,,,0.00,Wunderground v.1.15,2013-08-02 12:56:00,
2013-08-02 06:11:00,59.2,55.3,30.13,SE,141,1.0,1.0,87,0.00,,,0.01,Wunderground v.1.15,2013-08-02 13:11:00,
2013-08-02 06:20:00,58.7,56.7,30.13,SE,140,0.0,0.0,93,0.00,,,0.01,Wunderground v.1.15,2013-08-02 13:20:00,
2013-08-02 06:26:00,58.4,56.7,30.13,SE,140,0.0,0.0,94,0.00,,,0.01,Wunderground v.1.15,2013-08-02 13:26:00,
2013-08-02 06:31:00,58.3,57.2,30.13,SE,138,0.0,0.0,96,0.00,,,0.01,Wunderground v.1.15,2013-08-02 13:31:00,
2013-08-02 06:41:00,58.0,57.2,30.13,North,0,0.0,0.0,97,0.00,,,0.01,Wunderground v.1.15,2013-08-02 13:41:00,
2013-08-02 06:51:00,57.8,57.0,30.14,North,0,0.0,0.0,97,0.00,,,0.01,Wunderground v.1.15,2013-08-02 13:51:00,
2013-08-02 06:56:00,57.8,57.0,30.14,North,0,0.0,0.0,97,0.00,,,0.01,Wunderground v.1.15,2013-08-02 13:56:00,
2013-08-02 07:11:00,57.8,57.2,30.14,North,0,0.0,0.0,98,0.00,,,0.01,Wunderground v.1.15,2013-08-02 14:11:00,
2013-08-02 07:21:00,57.8,57.2,30.14,North,0,0.0,0.0,98,0.00,,,0.01,Wunderground v.1.15,2013-08-02 14:21:00,
2013-08-02 07:31:00,57.8,57.2,30.14,North,0,0.0,0.0,98,0.00,,,0.01,Wunderground v.1.15,2013-08-02 14:31:00,
2013-08-02 07:41:00,57.6,57.0,30.15,North,0,0.0,0.0,98,0.00,,,0.01,Wunderground v.1.15,2013-08-02 14:41:00,
2013-08-02 07:51:00,57.3,56.7,30.15,North,0,0.0,0.0,98,0.00,,,0.01,Wunderground v.1.15,2013-08-02 14:51:00,
2013-08-02 08:01:00,57.2,56.6,30.15,North,0,0.0,0.0,98,0.00,,,0.01,Wunderground v.1.15,2013-08-02 15:01:00,
2013-08-02 08:10:00,57.2,56.6,30.15,North,0,0.0,0.0,98,0.00,,,0.02,Wunderground v.1.15,2013-08-02 15:10:00,
2013-08-02 08:15:00,57.2,56.6,30.15,North,0,0.0,0.0,98,0.08,,,0.03,Wunderground v.1.15,2013-08-02 15:15:00,
2013-08-02 08:26:00,57.0,56.4,30.15,South,169,1.0,2.0,98,0.10,,,0.04,Wunderground v.1.15,2013-08-02 15:26:00,
2013-08-02 08:36:00,57.2,56.6,30.15,South,189,0.0,1.0,98,0.04,,,0.04,Wunderground v.1.15,2013-08-02 15:36:00,
2013-08-02 08:45:00,56.9,56.3,30.15,SSW,208,1.0,1.0,98,0.00,,,0.04,Wunderground v.1.15,2013-08-02 15:45:00,
2013-08-02 08:51:00,57.0,56.4,30.15,WSW,247,0.0,1.0,98,0.00,,,0.04,Wunderground v.1.15,2013-08-02 15:51:00,
2013-08-02 09:01:00,57.2,56.9,30.15,WSW,258,0.0,0.0,99,0.00,,,0.04,Wunderground v.1.15,2013-08-02 16:01:00,
2013-08-02 09:10:00,57.5,57.2,30.15,West,265,0.0,2.0,99,0.00,,,0.04,Wunderground v.1.15,2013-08-02 16:10:00,
2013-08-02 09:16:00,57.6,57.3,30.15,West,270,0.0,2.0,99,0.00,,,0.04,Wunderground v.1.15,2013-08-02 16:16:00,
2013-08-02 09:25:00,58.1,57.8,30.15,ESE,116,0.0,0.0,99,0.00,,,0.04,Wunderground v.1.15,2013-08-02 16:25:00,
2013-08-02 09:31:00,58.3,58.0,30.15,ESE,116,0.0,0.0,99,0.00,,,0.04,Wunderground v.1.15,2013-08-02 16:31:00,
2013-08-02 09:40:00,58.4,58.1,30.15,ESE,116,0.0,0.0,99,0.00,,,0.04,Wunderground v.1.15,2013-08-02 16:40:00,
2013-08-02 09:46:00,58.6,58.3,30.15,ESE,116,0.0,0.0,99,0.00,,,0.04,Wunderground v.1.15,2013-08-02 16:46:00,
2013-08-02 09:56:00,58.6,58.3,30.15,ESE,116,0.0,0.0,99,0.00,,,0.04,Wunderground v.1.15,2013-08-02 16:56:00,
2013-08-02 10:10:00,58.6,58.3,30.16,ESE,116,0.0,0.0,99,0.00,,,0.05,Wunderground v.1.15,2013-08-02 17:10:00,
2013-08-02 10:21:00,58.6,58.3,30.16,ESE,116,0.0,0.0,99,0.07,,,0.06,Wunderground v.1.15,2013-08-02 17:21:00,
2013-08-02 10:31:00,58.6,58.3,30.16,ESE,116,0.0,0.0,99,0.00,,,0.06,Wunderground v.1.15,2013-08-02 17:31:00,
2013-08-02 10:41:00,58.7,58.4,30.16,ENE,73,0.0,0.0,99,0.00,,,0.06,Wunderground v.1.15,2013-08-02 17:41:00,
2013-08-02 10:50:00,58.7,58.4,30.16,ENE,75,0.0,0.0,99,0.00,,,0.06,Wunderground v.1.15,2013-08-02 17:50:00,
2013-08-02 10:55:00,58.7,58.4,30.16,ENE,75,0.0,0.0,99,0.00,,,0.06,Wunderground v.1.15,2013-08-02 17:55:00,
2013-08-02 11:11:00,58.9,58.6,30.16,ENE,75,0.0,0.0,99,0.00,,,0.07,Wunderground v.1.15,2013-08-02 18:11:00,
2013-08-02 11:20:00,59.2,58.9,30.16,ENE,75,0.0,0.0,99,0.04,,,0.08,Wunderground v.1.15,2013-08-02 18:20:00,
2013-08-02 11:26:00,59.2,58.9,30.16,ENE,75,0.0,0.0,99,0.04,,,0.08,Wunderground v.1.15,2013-08-02 18:26:00,
2013-08-02 11:35:00,59.2,58.9,30.16,ENE,75,0.0,0.0,99,0.11,,,0.11,Wunderground v.1.15,2013-08-02 18:35:00,
2013-08-02 11:41:00,59.2,58.9,30.16,ENE,75,0.0,1.0,99,0.13,,,0.12,Wunderground v.1.15,2013-08-02 18:41:00,
2013-08-02 11:46:00,59.2,58.9,30.16,ENE,75,0.0,1.0,99,0.09,,,0.12,Wunderground v.1.15,2013-08-02 18:46:00,
2013-08-02 11:55:00,59.3,59.0,30.16,ENE,75,0.0,0.0,99,0.18,,,0.14,Wunderground v.1.15,2013-08-02 18:55:00,
2013-08-02 12:01:00,59.3,59.0,30.16,ENE,75,0.0,0.0,99,0.17,,,0.15,Wunderground v.1.15,2013-08-02 19:01:00,
2013-08-02 12:10:00,59.2,58.9,30.16,ENE,75,0.0,0.0,99,0.07,,,0.16,Wunderground v.1.15,2013-08-02 19:10:00,
2013-08-02 12:21:00,59.0,58.7,30.17,ENE,75,0.0,0.0,99,0.06,,,0.17,Wunderground v.1.15,2013-08-02 19:21:00,
2013-08-02 12:31:00,59.0,58.7,30.17,ENE,75,0.0,0.0,99,0.04,,,0.18,Wunderground v.1.15,2013-08-02 19:31:00,
2013-08-02 12:40:00,59.3,59.0,30.17,ENE,75,0.0,0.0,99,0.05,,,0.19,Wunderground v.1.15,2013-08-02 19:40:00,
2013-08-02 12:46:00,59.6,59.3,30.17,ENE,75,0.0,0.0,99,0.05,,,0.19,Wunderground v.1.15,2013-08-02 19:46:00,
2013-08-02 12:56:00,59.6,59.3,30.17,ENE,75,0.0,0.0,99,0.05,,,0.20,Wunderground v.1.15,2013-08-02 19:56:00,
2013-08-02 13:01:00,59.5,59.2,30.17,ENE,75,0.0,0.0,99,0.08,,,0.21,Wunderground v.1.15,2013-08-02 20:01:00,
2013-08-02 13:10:00,59.8,59.5,30.17,ENE,75,0.0,0.0,99,0.08,,,0.22,Wunderground v.1.15,2013-08-02 20:10:00,
2013-08-02 13:16:00,59.9,59.6,30.17,ENE,75,0.0,0.0,99,0.06,,,0.22,Wunderground v.1.15,2013-08-02 20:16:00,
2013-08-02 13:21:00,60.1,59.8,30.17,ENE,75,0.0,0.0,99,0.04,,,0.22,Wunderground v.1.15,2013-08-02 20:21:00,
2013-08-02 13:31:00,59.9,59.6,30.17,ENE,75,0.0,0.0,99,0.00,,,0.23,Wunderground v.1.15,2013-08-02 20:31:00,
2013-08-02 13:41:00,60.1,59.8,30.17,ENE,75,0.0,0.0,99,0.00,,,0.23,Wunderground v.1.15,2013-08-02 20:41:00,
2013-08-02 13:51:00,60.2,59.9,30.17,ENE,75,0.0,0.0,99,0.00,,,0.23,Wunderground v.1.15,2013-08-02 20:51:00,
2013-08-02 14:01:00,60.5,60.2,30.17,ENE,75,0.0,0.0,99,0.00,,,0.23,Wunderground v.1.15,2013-08-02 21:01:00,
2013-08-02 14:10:00,60.5,60.2,30.17,ENE,75,0.0,0.0,99,0.00,,,0.23,Wunderground v.1.15,2013-08-02 21:10:00,
2013-08-02 14:16:00,60.4,60.1,30.17,ENE,75,0.0,0.0,99,0.00,,,0.24,Wunderground v.1.15,2013-08-02 21:16:00,
2013-08-02 14:21:00,60.1,59.8,30.18,ENE,75,0.0,0.0,99,0.00,,,0.24,Wunderground v.1.15,2013-08-02 21:21:00,
2013-08-02 14:30:00,60.1,59.8,30.18,ENE,75,0.0,0.0,99,0.10,,,0.26,Wunderground v.1.15,2013-08-02 21:30:00,
2013-08-02 14:35:00,60.1,59.8,30.18,ENE,75,0.0,0.0,99,0.08,,,0.26,Wunderground v.1.15,2013-08-02 21:35:00,
2013-08-02 14:40:00,60.1,59.8,30.18,ENE,75,0.0,0.0,99,0.07,,,0.27,Wunderground v.1.15,2013-08-02 21:40:00,
2013-08-02 14:46:00,60.2,59.9,30.18,ENE,75,0.0,0.0,99,0.06,,,0.27,Wunderground v.1.15,2013-08-02 21:46:00,
2013-08-02 14:55:00,60.4,60.1,30.18,ENE,75,0.0,0.0,99,0.05,,,0.28,Wunderground v.1.15,2013-08-02 21:55:00,
2013-08-02 15:00:00,60.4,60.1,30.18,ENE,75,0.0,1.0,99,0.05,,,0.28,Wunderground v.1.15,2013-08-02 22:00:00,
2013-08-02 15:11:00,60.4,60.1,30.18,SW,226,0.0,1.0,99,0.00,,,0.28,Wunderground v.1.15,2013-08-02 22:11:00,
2013-08-02 15:21:00,60.4,60.1,30.18,SW,226,0.0,0.0,99,0.00,,,0.28,Wunderground v.1.15,2013-08-02 22:21:00,
2013-08-02 15:30:00,60.4,60.1,30.18,SW,226,0.0,0.0,99,0.00,,,0.29,Wunderground v.1.15,2013-08-02 22:30:00,
2013-08-02 15:35:00,60.4,60.1,30.18,SW,226,0.0,0.0,99,0.00,,,0.29,Wunderground v.1.15,2013-08-02 22:35:00,
2013-08-02 15:46:00,60.4,60.1,30.18,SW,226,0.0,0.0,99,0.00,,,0.29,Wunderground v.1.15,2013-08-02 22:46:00,
2013-08-02 15:56:00,60.5,60.2,30.18,SW,226,0.0,0.0,99,0.00,,,0.29,Wunderground v.1.15,2013-08-02 22:56:00,
2013-08-02 16:11:00,60.7,60.4,30.18,SW,226,0.0,0.0,99,0.00,,,0.29,Wunderground v.1.15,2013-08-02 23:11:00,
2013-08-02 16:20:00,60.9,60.6,30.17,SW,226,0.0,0.0,99,0.00,,,0.29,Wunderground v.1.15,2013-08-02 23:20:00,
2013-08-02 16:25:00,60.9,60.6,30.17,SW,226,0.0,0.0,99,0.00,,,0.29,Wunderground v.1.15,2013-08-02 23:25:00,
2013-08-02 16:31:00,60.9,60.6,30.17,SW,226,0.0,0.0,99,0.00,,,0.29,Wunderground v.1.15,2013-08-02 23:31:00,
2013-08-02 16:41:00,61.0,60.7,30.17,SW,226,0.0,0.0,99,0.00,,,0.29,Wunderground v.1.15,2013-08-02 23:41:00,
2013-08-02 16:46:00,61.0,60.7,30.17,SW,226,0.0,0.0,99,0.00,,,0.29,Wunderground v.1.15,2013-08-02 23:46:00,
2013-08-02 16:56:00,61.0,60.7,30.17,SW,226,0.0,0.0,99,0.00,,,0.29,Wunderground v.1.15,2013-08-02 23:56:00,
2013-08-02 17:06:00,61.2,60.9,30.17,SW,226,0.0,0.0,99,0.00,,,0.29,Wunderground v.1.15,2013-08-03 00:06:00,
2013-08-02 17:16:00,61.0,60.7,30.17,SW,226,0.0,0.0,99,0.00,,,0.29,Wunderground v.1.15,2013-08-03 00:16:00,
2013-08-02 17:25:00,61.0,60.7,30.17,SW,226,0.0,0.0,99,0.00,,,0.29,Wunderground v.1.15,2013-08-03 00:25:00,
2013-08-02 17:31:00,61.0,60.7,30.17,SW,226,0.0,0.0,99,0.00,,,0.29,Wunderground v.1.15,2013-08-03 00:31:00,
2013-08-02 17:41:00,61.0,60.7,30.17,SW,226,0.0,1.0,99,0.00,,,0.29,Wunderground v.1.15,2013-08-03 00:41:00,
2013-08-02 17:50:00,60.9,60.6,30.17,SW,226,0.0,0.0,99,0.00,,,0.29,Wunderground v.1.15,2013-08-03 00:50:00,
2013-08-02 17:56:00,60.9,60.6,30.17,SW,226,0.0,0.0,99,0.00,,,0.29,Wunderground v.1.15,2013-08-03 00:56:00,
2013-08-02 18:10:00,60.5,60.2,30.17,SW,226,0.0,0.0,99,0.00,,,0.29,Wunderground v.1.15,2013-08-03 01:10:00,
2013-08-02 18:20:00,60.5,60.2,30.17,SW,226,0.0,0.0,99,0.00,,,0.29,Wunderground v.1.15,2013-08-03 01:20:00,
2013-08-02 18:26:00,60.5,60.2,30.17,SW,226,0.0,0.0,99,0.00,,,0.29,Wunderground v.1.15,2013-08-03 01:26:00,
2013-08-02 18:36:00,60.5,60.2,30.16,WSW,239,0.0,0.0,99,0.00,,,0.29,Wunderground v.1.15,2013-08-03 01:36:00,
2013-08-02 18:46:00,60.2,59.9,30.16,WSW,239,0.0,0.0,99,0.00,,,0.30,Wunderground v.1.15,2013-08-03 01:46:00,
2013-08-02 18:56:00,60.1,59.8,30.16,WSW,239,0.0,0.0,99,0.00,,,0.30,Wunderground v.1.15,2013-08-03 01:56:00,
2013-08-02 19:11:00,59.6,59.3,30.16,WSW,239,0.0,0.0,99,0.00,,,0.30,Wunderground v.1.15,2013-08-03 02:11:00,
2013-08-02 19:21:00,59.6,59.3,30.17,WSW,239,0.0,0.0,99,0.00,,,0.30,Wunderground v.1.15,2013-08-03 02:21:00,
2013-08-02 19:30:00,59.6,59.3,30.17,WSW,239,0.0,0.0,99,0.00,,,0.30,Wunderground v.1.15,2013-08-03 02:30:00,
2013-08-02 19:36:00,59.6,59.3,30.17,WSW,239,0.0,0.0,99,0.00,,,0.30,Wunderground v.1.15,2013-08-03 02:36:00,
2013-08-02 19:45:00,59.5,59.2,30.17,WSW,239,0.0,0.0,99,0.00,,,0.30,Wunderground v.1.15,2013-08-03 02:45:00,
2013-08-02 19:51:00,59.6,59.3,30.17,WSW,239,0.0,0.0,99,0.00,,,0.30,Wunderground v.1.15,2013-08-03 02:51:00,
2013-08-02 20:01:00,59.6,59.3,30.17,WSW,239,0.0,0.0,99,0.00,,,0.30,Wunderground v.1.15,2013-08-03 03:01:00,
2013-08-02 20:11:00,59.5,59.2,30.17,WSW,239,0.0,0.0,99,0.00,,,0.30,Wunderground v.1.15,2013-08-03 03:11:00,
2013-08-02 20:16:00,59.5,59.2,30.17,WSW,239,0.0,0.0,99,0.00,,,0.30,Wunderground v.1.15,2013-08-03 03:16:00,
2013-08-02 20:26:00,59.5,59.2,30.17,WSW,239,0.0,0.0,99,0.00,,,0.30,Wunderground v.1.15,2013-08-03 03:26:00,
2013-08-02 20:36:00,59.3,59.0,30.17,WSW,239,0.0,0.0,99,0.00,,,0.30,Wunderground v.1.15,2013-08-03 03:36:00,
2013-08-02 20:46:00,59.3,59.0,30.17,WSW,239,0.0,0.0,99,0.00,,,0.30,Wunderground v.1.15,2013-08-03 03:46:00,
2013-08-02 20:56:00,59.3,59.0,30.18,WSW,239,0.0,0.0,99,0.00,,,0.30,Wunderground v.1.15,2013-08-03 03:56:00,
2013-08-02 21:00:00,59.3,59.0,30.18,WSW,239,0.0,0.0,99,0.00,,,0.30,Wunderground v.1.15,2013-08-03 04:00:00,
2013-08-02 21:10:00,59.3,59.0,30.18,WSW,239,0.0,0.0,99,0.00,,,0.30,Wunderground v.1.15,2013-08-03 04:10:00,
2013-08-02 21:15:00,59.3,59.0,30.18,WSW,239,0.0,0.0,99,0.00,,,0.30,Wunderground v.1.15,2013-08-03 04:15:00,
2013-08-02 21:26:00,59.3,59.0,30.18,WSW,239,0.0,0.0,99,0.00,,,0.30,Wunderground v.1.15,2013-08-03 04:26:00,
2013-08-02 21:31:00,59.3,59.0,30.18,WSW,239,0.0,0.0,99,0.00,,,0.30,Wunderground v.1.15,2013-08-03 04:31:00,
2013-08-02 21:36:00,59.3,59.0,30.18,WSW,239,0.0,0.0,99,0.00,,,0.30,Wunderground v.1.15,2013-08-03 04:36:00,
2013-08-02 21:46:00,59.3,59.0,30.18,WSW,239,0.0,0.0,99,0.00,,,0.30,Wunderground v.1.15,2013-08-03 04:46:00,
2013-08-02 21:55:00,59.3,59.0,30.18,WSW,239,0.0,0.0,99,0.00,,,0.30,Wunderground v.1.15,2013-08-03 04:55:00,
2013-08-02 22:00:00,59.2,58.9,30.18,WSW,239,0.0,0.0,99,0.00,,,0.30,Wunderground v.1.15,2013-08-03 05:00:00,
2013-08-02 22:10:00,59.2,58.9,30.18,WSW,239,0.0,0.0,99,0.00,,,0.30,Wunderground v.1.15,2013-08-03 05:10:00,
2013-08-02 22:15:00,59.3,59.0,30.18,WSW,239,0.0,0.0,99,0.00,,,0.30,Wunderground v.1.15,2013-08-03 05:15:00,
2013-08-02 22:26:00,59.3,59.0,30.18,WSW,239,0.0,0.0,99,0.00,,,0.30,Wunderground v.1.15,2013-08-03 05:26:00,
2013-08-02 22:36:00,59.3,59.0,30.18,WSW,239,0.0,0.0,99,0.00,,,0.30,Wunderground v.1.15,2013-08-03 05:36:00,
2013-08-02 22:46:00,59.2,58.9,30.18,WSW,239,0.0,0.0,99,0.00,,,0.30,Wunderground v.1.15,2013-08-03 05:46:00,
2013-08-02 22:56:00,59.2,58.9,30.18,WSW,239,0.0,0.0,99,0.00,,,0.30,Wunderground v.1.15,2013-08-03 05:56:00,
2013-08-02 23:01:00,59.3,59.0,30.18,WSW,239,0.0,0.0,99,0.00,,,0.30,Wunderground v.1.15,2013-08-03 06:01:00,
2013-08-02 23:11:00,59.2,58.9,30.18,WSW,239,0.0,0.0,99,0.00,,,0.30,Wunderground v.1.15,2013-08-03 06:11:00,
2013-08-02 23:20:00,59.2,58.9,30.17,WSW,239,0.0,0.0,99,0.00,,,0.30,Wunderground v.1.15,2013-08-03 06:20:00,
2013-08-02 23:26:00,59.2,58.9,30.17,WSW,239,0.0,0.0,99,0.00,,,0.30,Wunderground v.1.15,2013-08-03 06:26:00,
2013-08-02 23:35:00,59.2,58.9,30.17,WSW,239,0.0,0.0,99,0.00,,,0.30,Wunderground v.1.15,2013-08-03 06:35:00,
2013-08-02 23:45:00,59.2,58.9,30.17,WSW,239,0.0,0.0,99,0.00,,,0.30,Wunderground v.1.15,2013-08-03 06:45:00,
2013-08-02 23:56:00,59.2,58.9,30.17,WSW,239,0.0,0.0,99,0.00,,,0.30,Wunderground v.1.15,2013-08-03 06:56:00,